| time (UTC) | temp C | wind direction | speed KPH | gust KPH | rain 1hr cm | rain 24hr cm | rain mn cm | humidity % | barometer mb |
| 20260903130817 | 18 | 249 | 8.0 | 19.3 | 0.00 | 0.18 | 0.08 | 77 | 1012.1 |
| 20260903130317 | 18 | 249 | 11.3 | 19.3 | 0.00 | 0.18 | 0.08 | 77 | 1012.2 |
| 20260903125817 | 18 | 249 | 8.0 | 19.3 | 0.00 | 0.18 | 0.08 | 77 | 1012.3 |
| 20260903124817 | 18 | 226 | 6.4 | 19.3 | 0.00 | 0.18 | 0.08 | 77 | 1012.3 |
| 20260903124316 | 18 | 228 | 8.0 | 19.3 | 0.00 | 0.20 | 0.08 | 78 | 1012.4 |
| 20260903123816 | 18 | 237 | 8.0 | 20.9 | 0.00 | 0.20 | 0.08 | 78 | 1012.4 |
| 20260903123316 | 18 | 258 | 9.7 | 20.9 | 0.00 | 0.20 | 0.08 | 77 | 1012.6 |
| 20260903122817 | 18 | 224 | 12.9 | 25.7 | 0.00 | 0.20 | 0.08 | 77 | 1012.7 |
| 20260903121316 | 18 | 240 | 9.7 | 19.3 | 0.00 | 0.20 | 0.08 | 78 | 1012.7 |
| 20260903120816 | 18 | 238 | 9.7 | 19.3 | 0.00 | 0.20 | 0.08 | 77 | 1012.8 |
| 20260903120317 | 18 | 251 | 8.0 | 16.1 | 0.00 | 0.20 | 0.08 | 78 | 1012.8 |
| 20260903115816 | 18 | 235 | 8.0 | 19.3 | 0.00 | 0.20 | 0.08 | 78 | 1012.6 |
| 20260903115317 | 17 | 226 | 9.7 | 19.3 | 0.00 | 0.20 | 0.08 | 78 | 1012.7 |
| 20260903114816 | 17 | 237 | 8.0 | 19.3 | 0.00 | 0.20 | 0.08 | 79 | 1012.7 |
| 20260903114316 | 17 | 238 | 9.7 | 20.9 | 0.00 | 0.20 | 0.08 | 78 | 1012.6 |
| 20260903113317 | 17 | 237 | 9.7 | 19.3 | 0.00 | 0.23 | 0.08 | 78 | 1012.7 |
| 20260903112317 | 17 | 259 | 8.0 | 20.9 | 0.00 | 0.25 | 0.08 | 77 | 1012.6 |
| 20260903111816 | 17 | 248 | 6.4 | 20.9 | 0.00 | 0.25 | 0.08 | 78 | 1012.6 |
| 20260903110817 | 17 | 249 | 4.8 | 12.9 | 0.00 | 0.25 | 0.08 | 79 | 1012.5 |
| 20260903110316 | 17 | 251 | 8.0 | 12.9 | 0.00 | 0.25 | 0.08 | 79 | 1012.4 |
| 20260903105816 | 17 | 256 | 9.7 | 16.1 | 0.00 | 0.25 | 0.08 | 77 | 1012.4 |
| 20260903105316 | 17 | 248 | 8.0 | 14.5 | 0.00 | 0.25 | 0.08 | 77 | 1012.3 |
| 20260903104817 | 17 | 243 | 9.7 | 22.5 | 0.00 | 0.28 | 0.08 | 78 | 1012.4 |
| 20260903103817 | 17 | 257 | 8.0 | 16.1 | 0.00 | 0.28 | 0.08 | 80 | 1012.5 |
| 20260903103316 | 17 | 239 | 8.0 | 22.5 | 0.00 | 0.28 | 0.08 | 80 | 1012.5 |
| 20260903102817 | 17 | 253 | 9.7 | 16.1 | 0.00 | 0.28 | 0.08 | 80 | 1012.5 |
| 20260903102316 | 17 | 250 | 9.7 | 19.3 | 0.00 | 0.28 | 0.08 | 81 | 1012.3 |
| 20260903101816 | 17 | 226 | 9.7 | 19.3 | 0.00 | 0.28 | 0.08 | 83 | 1012.2 |
| 20260903101317 | 16 | 258 | 6.4 | 11.3 | 0.00 | 0.28 | 0.08 | 85 | 1012.2 |
| 20260903100816 | 16 | 246 | 8.0 | 19.3 | 0.00 | 0.28 | 0.08 | 85 | 1012.3 |
| 20260903100316 | 16 | 251 | 8.0 | 19.3 | 0.00 | 0.28 | 0.08 | 86 | 1012.3 |
| 20260903095816 | 16 | 252 | 9.7 | 16.1 | 0.00 | 0.28 | 0.08 | 86 | 1012.1 |
| 20260903095316 | 16 | 235 | 6.4 | 20.9 | 0.00 | 0.28 | 0.08 | 87 | 1012.2 |
| 20260903094817 | 16 | 250 | 11.3 | 20.9 | 0.00 | 0.28 | 0.08 | 87 | 1012.2 |
| 20260903094316 | 16 | 243 | 8.0 | 19.3 | 0.00 | 0.28 | 0.08 | 87 | 1012.2 |
| 20260903093816 | 16 | 246 | 8.0 | 12.9 | 0.00 | 0.28 | 0.08 | 88 | 1012.1 |
| 20260903093317 | 16 | 244 | 8.0 | 12.9 | 0.00 | 0.28 | 0.08 | 88 | 1012.2 |
| 20260903092816 | 16 | 237 | 8.0 | 16.1 | 0.00 | 0.28 | 0.08 | 89 | 1012.0 |
| 20260903092316 | 16 | 240 | 8.0 | 19.3 | 0.00 | 0.28 | 0.08 | 88 | 1012.0 |
| 20260903091316 | 16 | 249 | 8.0 | 20.9 | 0.00 | 0.28 | 0.08 | 89 | 1012.1 |
| 20260903090316 | 16 | 241 | 11.3 | 32.2 | 0.00 | 0.28 | 0.08 | 89 | 1011.8 |
| 20260903085316 | 15 | 238 | 6.4 | 24.1 | 0.00 | 0.28 | 0.08 | 91 | 1011.5 |
| 20260903084817 | 15 | 250 | 9.7 | 19.3 | 0.03 | 0.28 | 0.08 | 91 | 1011.5 |
| 20260903084316 | 15 | 254 | 8.0 | 19.3 | 0.03 | 0.28 | 0.08 | 91 | 1011.5 |
| 20260903083816 | 15 | 248 | 12.9 | 24.1 | 0.03 | 0.28 | 0.08 | 91 | 1011.4 |
| 20260903083316 | 15 | 249 | 11.3 | 19.3 | 0.03 | 0.28 | 0.08 | 91 | 1011.4 |
| 20260903082816 | 15 | 238 | 11.3 | 24.1 | 0.03 | 0.28 | 0.08 | 91 | 1011.2 |
| 20260903082317 | 15 | 219 | 9.7 | 19.3 | 0.03 | 0.28 | 0.08 | 91 | 1011.2 |
| 20260903081816 | 15 | 237 | 11.3 | 19.3 | 0.03 | 0.28 | 0.08 | 91 | 1011.2 |
| 20260903081316 | 15 | 240 | 11.3 | 22.5 | 0.03 | 0.28 | 0.08 | 92 | 1011.3 |
| 20260903080817 | 15 | 236 | 8.0 | 22.5 | 0.03 | 0.28 | 0.08 | 92 | 1011.2 |
| 20260903080316 | 15 | 239 | 8.0 | 20.9 | 0.05 | 0.28 | 0.08 | 92 | 1011.2 |
| 20260903075817 | 15 | 252 | 6.4 | 20.9 | 0.05 | 0.28 | 0.08 | 92 | 1011.2 |
| 20260903075316 | 15 | 238 | 9.7 | 20.9 | 0.05 | 0.28 | 0.08 | 92 | 1011.3 |
| 20260903074816 | 15 | 236 | 8.0 | 19.3 | 0.05 | 0.25 | 0.05 | 92 | 1011.3 |
| 20260903074316 | 15 | 243 | 11.3 | 20.9 | 0.05 | 0.25 | 0.05 | 91 | 1011.1 |
| 20260903073316 | 15 | 242 | 9.7 | 19.3 | 0.05 | 0.25 | 0.05 | 91 | 1011.1 |
| 20260903072317 | 15 | 242 | 11.3 | 22.5 | 0.05 | 0.25 | 0.05 | 92 | 1011.2 |
| 20260903071816 | 15 | 250 | 9.7 | 16.1 | 0.05 | 0.25 | 0.05 | 92 | 1010.9 |
| 20260903071316 | 15 | 233 | 8.0 | 19.3 | 0.05 | 0.25 | 0.05 | 92 | 1010.8 |
| 20260903070816 | 15 | 241 | 8.0 | 16.1 | 0.05 | 0.25 | 0.05 | 92 | 1010.6 |
| 20260903070316 | 15 | 259 | 8.0 | 19.3 | 0.03 | 0.23 | 0.05 | 91 | 1010.5 |
| 20260903065816 | 15 | 235 | 9.7 | 19.3 | 0.03 | 0.23 | 0.05 | 91 | 1010.6 |
| 20260903065316 | 15 | 237 | 11.3 | 24.1 | 0.03 | 0.23 | 0.05 | 91 | 1010.5 |
| 20260903064817 | 15 | 253 | 11.3 | 22.5 | 0.00 | 0.23 | 0.03 | 90 | 1010.6 |
| 20260903064316 | 15 | 246 | 16.1 | 22.5 | 0.00 | 0.23 | 0.03 | 91 | 1010.5 |
| 20260903063816 | 15 | 249 | 9.7 | 24.1 | 0.00 | 0.23 | 0.03 | 91 | 1010.5 |
| 20260903063316 | 15 | 246 | 11.3 | 24.1 | 0.00 | 0.23 | 0.03 | 91 | 1010.2 |
| 20260903062817 | 15 | 236 | 9.7 | 19.3 | 0.00 | 0.23 | 0.03 | 92 | 1010.2 |
| 20260903062316 | 15 | 236 | 8.0 | 19.3 | 0.00 | 0.23 | 0.03 | 92 | 1010.3 |
| 20260903061816 | 15 | 241 | 11.3 | 19.3 | 0.00 | 0.23 | 0.03 | 92 | 1010.2 |
| 20260903060817 | 15 | 246 | 11.3 | 27.4 | 0.00 | 0.23 | 0.03 | 92 | 1010.2 |
| 20260903060316 | 15 | 253 | 9.7 | 24.1 | 0.00 | 0.23 | 0.03 | 91 | 1010.1 |
| 20260903055817 | 16 | 252 | 11.3 | 19.3 | 0.00 | 0.23 | 0.03 | 91 | 1010.1 |
| 20260903054816 | 16 | 244 | 11.3 | 20.9 | 0.00 | 0.23 | 0.03 | 91 | 1010.0 |
| 20260903054315 | 16 | 234 | 9.7 | 24.1 | 0.00 | 0.23 | 0.03 | 91 | 1010.0 |
| 20260903053817 | 16 | 240 | 9.7 | 19.3 | 0.00 | 0.23 | 0.03 | 90 | 1009.9 |
| 20260903053315 | 16 | 247 | 9.7 | 22.5 | 0.00 | 0.23 | 0.03 | 90 | 1010.0 |
| 20260903052816 | 16 | 248 | 11.3 | 19.3 | 0.00 | 0.23 | 0.03 | 90 | 1010.1 |
| 20260903051816 | 16 | 238 | 9.7 | 19.3 | 0.00 | 0.23 | 0.03 | 90 | 1009.8 |
| 20260903051316 | 16 | 249 | 12.9 | 20.9 | 0.00 | 0.23 | 0.03 | 90 | 1009.9 |
| 20260903050816 | 16 | 237 | 8.0 | 16.1 | 0.00 | 0.23 | 0.03 | 90 | 1009.9 |
| 20260903050317 | 16 | 242 | 9.7 | 22.5 | 0.00 | 0.23 | 0.03 | 90 | 1009.9 |
| 20260903045816 | 16 | 238 | 8.0 | 16.1 | 0.00 | 0.23 | 0.03 | 90 | 1010.0 |
| 20260903045315 | 16 | 234 | 8.0 | 19.3 | 0.00 | 0.23 | 0.03 | 90 | 1009.9 |
| 20260903044817 | 16 | 251 | 9.7 | 16.1 | 0.00 | 0.23 | 0.03 | 90 | 1010.0 |
| 20260903044316 | 16 | 243 | 9.7 | 16.1 | 0.00 | 0.23 | 0.03 | 90 | 1010.0 |
| 20260903043816 | 16 | 254 | 8.0 | 16.1 | 0.00 | 0.23 | 0.03 | 91 | 1009.9 |
| 20260903043316 | 16 | 248 | 9.7 | 20.9 | 0.00 | 0.23 | 0.03 | 90 | 1009.9 |
| 20260903042816 | 16 | 242 | 8.0 | 19.3 | 0.00 | 0.23 | 0.03 | 90 | 1009.9 |
| 20260903042317 | 16 | 265 | 9.7 | 22.5 | 0.00 | 0.23 | 0.03 | 90 | 1009.8 |
| 20260903041316 | 16 | 262 | 9.7 | 19.3 | 0.00 | 0.23 | 0.03 | 90 | 1009.7 |
| 20260903040816 | 16 | 258 | 11.3 | 19.3 | 0.00 | 0.23 | 0.03 | 90 | 1009.9 |
| 20260903040317 | 16 | 233 | 8.0 | 14.5 | 0.00 | 0.23 | 0.03 | 91 | 1009.9 |
| 20260903034817 | 16 | 238 | 8.0 | 12.9 | 0.00 | 0.23 | 0.03 | 92 | 1009.8 |
| 20260903033317 | 16 | 242 | 8.0 | 22.5 | 0.00 | 0.23 | 0.03 | 92 | 1009.8 |
| 20260903032816 | 16 | 250 | 9.7 | 19.3 | 0.00 | 0.23 | 0.03 | 92 | 1009.7 |
| 20260903032316 | 16 | 249 | 8.0 | 16.1 | 0.00 | 0.23 | 0.03 | 92 | 1009.8 |
| 20260903031816 | 16 | 249 | 9.7 | 16.1 | 0.00 | 0.23 | 0.03 | 92 | 1009.6 |
| 20260903031316 | 16 | 248 | 9.7 | 20.9 | 0.00 | 0.23 | 0.03 | 92 | 1009.5 |
| 20260903030816 | 16 | 234 | 11.3 | 22.5 | 0.00 | 0.23 | 0.03 | 92 | 1009.7 |
| 20260903030316 | 17 | 245 | 11.3 | 20.9 | 0.00 | 0.23 | 0.03 | 92 | 1009.7 |
| 20260903025816 | 17 | 257 | 11.3 | 24.1 | 0.00 | 0.23 | 0.03 | 92 | 1009.6 |
| 20260903024316 | 17 | 239 | 9.7 | 19.3 | 0.00 | 0.23 | 0.03 | 92 | 1009.7 |
| 20260903023816 | 17 | 256 | 12.9 | 20.9 | 0.00 | 0.23 | 0.03 | 91 | 1009.6 |
| 20260903023316 | 17 | 249 | 11.3 | 22.5 | 0.00 | 0.23 | 0.03 | 91 | 1009.7 |
| 20260903022816 | 17 | 239 | 9.7 | 22.5 | 0.00 | 0.23 | 0.03 | 91 | 1009.7 |
| 20260903022316 | 17 | 235 | 8.0 | 16.1 | 0.00 | 0.23 | 0.03 | 92 | 1009.6 |
| 20260903020816 | 17 | 226 | 11.3 | 24.1 | 0.00 | 0.23 | 0.03 | 91 | 1009.8 |
| 20260903020316 | 17 | 241 | 11.3 | 19.3 | 0.00 | 0.23 | 0.03 | 91 | 1010.0 |
| 20260903015316 | 17 | 251 | 12.9 | 25.7 | 0.00 | 0.23 | 0.03 | 91 | 1010.0 |
| 20260903014816 | 17 | 240 | 14.5 | 22.5 | 0.00 | 0.23 | 0.03 | 90 | 1010.0 |
| 20260903014316 | 17 | 245 | 16.1 | 24.1 | 0.00 | 0.23 | 0.03 | 90 | 1009.9 |
| 20260903013816 | 17 | 237 | 14.5 | 29.0 | 0.00 | 0.23 | 0.03 | 90 | 1009.8 |
| 20260903013317 | 17 | 244 | 9.7 | 19.3 | 0.00 | 0.23 | 0.03 | 90 | 1009.8 |
| 20260903012816 | 17 | 245 | 11.3 | 22.5 | 0.00 | 0.23 | 0.03 | 91 | 1009.8 |
| 20260903012316 | 17 | 242 | 9.7 | 19.3 | 0.00 | 0.23 | 0.03 | 91 | 1009.7 |
| 20260903011816 | 17 | 250 | 11.3 | 20.9 | 0.03 | 0.23 | 0.03 | 91 | 1009.7 |
| 20260903011316 | 17 | 245 | 12.9 | 24.1 | 0.03 | 0.23 | 0.03 | 92 | 1009.7 |
| 20260903010815 | 17 | 224 | 11.3 | 25.7 | 0.03 | 0.23 | 0.03 | 92 | 1009.7 |
| 20260903010316 | 17 | 231 | 8.0 | 19.3 | 0.03 | 0.23 | 0.03 | 92 | 1009.4 |
| 20260903005816 | 17 | 220 | 8.0 | 20.9 | 0.03 | 0.23 | 0.03 | 92 | 1009.5 |
| 20260903005316 | 17 | 253 | 9.7 | 20.9 | 0.03 | 0.23 | 0.03 | 92 | 1009.5 |
| 20260903003816 | 17 | 240 | 9.7 | 19.3 | 0.03 | 0.23 | 0.03 | 92 | 1009.9 |
| 20260903003316 | 17 | 228 | 9.7 | 19.3 | 0.03 | 0.23 | 0.03 | 92 | 1009.7 |
| 20260903002817 | 17 | 216 | 12.9 | 25.7 | 0.03 | 0.23 | 0.03 | 92 | 1009.7 |
| 20260903002316 | 17 | 234 | 9.7 | 22.5 | 0.03 | 0.23 | 0.03 | 92 | 1009.7 |
| 20260903001816 | 17 | 229 | 9.7 | 16.1 | 0.00 | 0.20 | 0.00 | 92 | 1009.9 |
| 20260903001315 | 17 | 232 | 8.0 | 22.5 | 0.00 | 0.20 | 0.00 | 92 | 1009.9 |
| 20260903000816 | 17 | 216 | 9.7 | 19.3 | 0.00 | 0.20 | 0.00 | 92 | 1010.0 |
| 20260903000317 | 17 | 219 | 6.4 | 11.3 | 0.00 | 0.20 | 0.00 | 92 | 1010.1 |
| 20260902235816 | 17 | 221 | 8.0 | 19.3 | 0.00 | 0.20 | 0.00 | 92 | 1010.1 |
| 20260902235315 | 17 | 239 | 6.4 | 12.9 | 0.00 | 0.20 | 0.00 | 92 | 1010.1 |
| 20260902234816 | 17 | 228 | 8.0 | 16.1 | 0.00 | 0.20 | 0.00 | 92 | 1010.1 |
| 20260902234315 | 17 | 238 | 9.7 | 16.1 | 0.00 | 0.20 | 0.00 | 92 | 1010.0 |
| 20260902233816 | 17 | 209 | 8.0 | 19.3 | 0.00 | 0.20 | 0.00 | 92 | 1010.0 |
| 20260902232815 | 17 | 229 | 6.4 | 12.9 | 0.00 | 0.20 | 0.00 | 93 | 1010.3 |
| 20260902232316 | 17 | 241 | 4.8 | 11.3 | 0.00 | 0.20 | 0.00 | 93 | 1010.2 |
| 20260902231816 | 17 | 219 | 6.4 | 11.3 | 0.03 | 0.20 | 0.00 | 93 | 1010.2 |
| 20260902231315 | 17 | 225 | 4.8 | 14.5 | 0.05 | 0.20 | 0.00 | 93 | 1010.3 |
| 20260902230856 | 17 | 216 | 8.0 | 14.5 | 0.05 | 0.20 | 0.00 | 93 | 1010.2 |
| 20260902230316 | 17 | 225 | 8.0 | 12.9 | 0.05 | 0.20 | 0.00 | 93 | 1010.2 |
| 20260902225816 | 17 | 226 | 8.0 | 14.5 | 0.05 | 0.20 | 0.20 | 93 | 1010.2 |
| 20260902225316 | 17 | 212 | 9.7 | 22.5 | 0.05 | 0.20 | 0.20 | 93 | 1010.4 |
| 20260902224816 | 17 | 213 | 9.7 | 22.5 | 0.05 | 0.20 | 0.20 | 93 | 1010.3 |
| 20260902224316 | 17 | 203 | 11.3 | 19.3 | 0.05 | 0.20 | 0.20 | 93 | 1010.2 |
| 20260902223315 | 17 | 207 | 8.0 | 16.1 | 0.05 | 0.20 | 0.20 | 93 | 1010.2 |
| 20260902221816 | 17 | 206 | 8.0 | 12.9 | 0.05 | 0.20 | 0.20 | 92 | 1010.5 |
| 20260902221317 | 17 | 207 | 8.0 | 14.5 | 0.00 | 0.15 | 0.15 | 92 | 1010.4 |
| 20260902220815 | 17 | 214 | 8.0 | 16.1 | 0.00 | 0.15 | 0.15 | 92 | 1010.4 |
| 20260902220316 | 17 | 236 | 6.4 | 11.3 | 0.00 | 0.15 | 0.15 | 92 | 1010.5 |
| 20260902215816 | 17 | 216 | 6.4 | 11.3 | 0.00 | 0.15 | 0.15 | 92 | 1010.3 |
| 20260902215316 | 17 | 217 | 4.8 | 11.3 | 0.00 | 0.15 | 0.15 | 92 | 1010.4 |
| 20260902214816 | 17 | 239 | 6.4 | 12.9 | 0.00 | 0.15 | 0.15 | 92 | 1010.5 |
| 20260902214316 | 17 | 241 | 6.4 | 11.3 | 0.00 | 0.15 | 0.15 | 92 | 1010.6 |
| 20260902213816 | 17 | 228 | 8.0 | 14.5 | 0.00 | 0.15 | 0.15 | 91 | 1010.7 |
| 20260902213315 | 17 | 227 | 8.0 | 19.3 | 0.00 | 0.15 | 0.15 | 91 | 1010.7 |
| 20260902212816 | 17 | 215 | 6.4 | 14.5 | 0.00 | 0.15 | 0.15 | 91 | 1010.6 |
| 20260902212316 | 17 | 245 | 9.7 | 19.3 | 0.00 | 0.15 | 0.15 | 91 | 1010.5 |
| 20260902211815 | 17 | 222 | 9.7 | 19.3 | 0.00 | 0.15 | 0.15 | 91 | 1010.5 |
| 20260902211316 | 17 | 219 | 8.0 | 14.5 | 0.00 | 0.15 | 0.15 | 91 | 1010.5 |
| 20260902210316 | 17 | 219 | 6.4 | 12.9 | 0.00 | 0.15 | 0.15 | 91 | 1010.5 |
| 20260902205815 | 17 | 227 | 6.4 | 19.3 | 0.00 | 0.15 | 0.15 | 91 | 1010.5 |
| 20260902205315 | 17 | 245 | 6.4 | 14.5 | 0.00 | 0.15 | 0.15 | 91 | 1010.4 |
| 20260902204815 | 17 | 244 | 8.0 | 14.5 | 0.00 | 0.15 | 0.15 | 92 | 1010.4 |
| 20260902203816 | 17 | 219 | 6.4 | 16.1 | 0.00 | 0.15 | 0.15 | 92 | 1010.3 |
| 20260902203316 | 17 | 243 | 6.4 | 12.9 | 0.00 | 0.15 | 0.15 | 92 | 1010.4 |
| 20260902202816 | 17 | 214 | 4.8 | 11.3 | 0.00 | 0.15 | 0.15 | 92 | 1010.5 |
| 20260902202315 | 17 | 236 | 4.8 | 9.7 | 0.00 | 0.15 | 0.15 | 92 | 1010.4 |
| 20260902201816 | 17 | 248 | 4.8 | 12.9 | 0.00 | 0.15 | 0.15 | 92 | 1010.3 |
| 20260902201317 | 17 | 221 | 8.0 | 16.1 | 0.00 | 0.15 | 0.15 | 92 | 1010.4 |
| 20260902200815 | 17 | 238 | 6.4 | 11.3 | 0.00 | 0.15 | 0.15 | 92 | 1010.4 |
| 20260902195816 | 17 | 220 | 4.8 | 11.3 | 0.00 | 0.15 | 0.15 | 92 | 1010.4 |
| 20260902195315 | 17 | 241 | 4.8 | 12.9 | 0.00 | 0.15 | 0.15 | 93 | 1010.4 |
| 20260902194816 | 17 | 258 | 4.8 | 11.3 | 0.00 | 0.15 | 0.15 | 93 | 1010.3 |
| 20260902193315 | 17 | 248 | 8.0 | 11.3 | 0.00 | 0.15 | 0.15 | 93 | 1010.3 |
| 20260902192816 | 17 | 242 | 4.8 | 12.9 | 0.00 | 0.15 | 0.15 | 93 | 1010.2 |
| 20260902192316 | 17 | 252 | 6.4 | 12.9 | 0.00 | 0.15 | 0.15 | 93 | 1010.2 |
| 20260902191816 | 17 | 245 | 8.0 | 12.9 | 0.00 | 0.15 | 0.15 | 93 | 1010.2 |
| 20260902191316 | 17 | 247 | 8.0 | 14.5 | 0.00 | 0.15 | 0.15 | 94 | 1010.3 |
| 20260902190816 | 17 | 241 | 6.4 | 12.9 | 0.00 | 0.15 | 0.15 | 94 | 1010.3 |
| 20260902190315 | 17 | 239 | 6.4 | 11.3 | 0.00 | 0.15 | 0.15 | 94 | 1010.4 |
| 20260902185816 | 17 | 247 | 4.8 | 9.7 | 0.00 | 0.15 | 0.15 | 94 | 1010.4 |
| 20260902185318 | 17 | 249 | 6.4 | 9.7 | 0.00 | 0.15 | 0.15 | 94 | 1010.5 |
| 20260902184816 | 17 | 256 | 3.2 | 9.7 | 0.00 | 0.15 | 0.15 | 94 | 1010.4 |
| 20260902184316 | 17 | 241 | 4.8 | 9.7 | 0.00 | 0.15 | 0.15 | 94 | 1010.5 |
| 20260902183815 | 17 | 208 | 4.8 | 9.7 | 0.00 | 0.15 | 0.15 | 94 | 1010.5 |
| 20260902183315 | 17 | 212 | 1.6 | 4.8 | 0.00 | 0.15 | 0.15 | 94 | 1010.4 |
| 20260902182815 | 17 | 186 | 1.6 | 4.8 | 0.00 | 0.15 | 0.15 | 94 | 1010.4 |
| 20260902182316 | 17 | 186 | 3.2 | 8.0 | 0.00 | 0.15 | 0.15 | 94 | 1010.4 |
| 20260902181816 | 17 | 199 | 4.8 | 8.0 | 0.00 | 0.15 | 0.15 | 93 | 1010.4 |
| 20260902181316 | 17 | 216 | 4.8 | 9.7 | 0.00 | 0.15 | 0.15 | 93 | 1010.5 |
| 20260902180816 | 17 | 211 | 4.8 | 9.7 | 0.00 | 0.15 | 0.15 | 93 | 1010.4 |
| 20260902180315 | 17 | 198 | 3.2 | 12.9 | 0.00 | 0.15 | 0.15 | 92 | 1010.4 |
| 20260902175815 | 17 | 236 | 3.2 | 8.0 | 0.00 | 0.15 | 0.15 | 92 | 1010.4 |
| 20260902175315 | 17 | 207 | 3.2 | 4.8 | 0.00 | 0.15 | 0.15 | 92 | 1010.4 |
| 20260902174817 | 17 | 196 | 3.2 | 9.7 | 0.00 | 0.15 | 0.15 | 92 | 1010.4 |
| 20260902174315 | 17 | 205 | 4.8 | 8.0 | 0.00 | 0.15 | 0.15 | 92 | 1010.4 |
| 20260902173816 | 17 | 183 | 3.2 | 4.8 | 0.00 | 0.15 | 0.15 | 92 | 1010.4 |
| 20260902173317 | 17 | 183 | 3.2 | 8.0 | 0.00 | 0.15 | 0.15 | 92 | 1010.5 |
| 20260902172815 | 17 | 193 | 3.2 | 8.0 | 0.00 | 0.15 | 0.15 | 92 | 1010.5 |
| 20260902172317 | 17 | 191 | 1.6 | 4.8 | 0.00 | 0.15 | 0.15 | 92 | 1010.5 |
| 20260902171815 | 17 | 191 | 1.6 | 4.8 | 0.00 | 0.15 | 0.15 | 92 | 1010.6 |
| 20260902171316 | 17 | 197 | 1.6 | 3.2 | 0.00 | 0.15 | 0.15 | 92 | 1010.6 |
| 20260902170815 | 17 | 197 | 1.6 | 4.8 | 0.00 | 0.15 | 0.15 | 91 | 1010.6 |
| 20260902170315 | 17 | 209 | 1.6 | 4.8 | 0.00 | 0.15 | 0.15 | 91 | 1010.7 |
| 20260902165816 | 17 | 209 | 1.6 | 4.8 | 0.00 | 0.15 | 0.15 | 91 | 1010.8 |
| 20260902165314 | 17 | 195 | 3.2 | 9.7 | 0.00 | 0.15 | 0.15 | 90 | 1010.9 |
| 20260902164816 | 17 | 204 | 6.4 | 11.3 | 0.00 | 0.15 | 0.15 | 90 | 1011.0 |
| 20260902164317 | 17 | 210 | 4.8 | 11.3 | 0.00 | 0.15 | 0.15 | 90 | 1011.0 |
| 20260902163315 | 17 | 190 | 8.0 | 12.9 | 0.00 | 0.15 | 0.15 | 89 | 1011.0 |
| 20260902162816 | 17 | 162 | 4.8 | 16.1 | 0.00 | 0.15 | 0.15 | 90 | 1010.9 |
| 20260902161816 | 17 | 174 | 6.4 | 12.9 | 0.00 | 0.15 | 0.15 | 90 | 1011.2 |
| 20260902161316 | 17 | 188 | 8.0 | 19.3 | 0.00 | 0.15 | 0.15 | 91 | 1011.3 |
| 20260902160816 | 17 | 200 | 6.4 | 16.1 | 0.00 | 0.15 | 0.15 | 92 | 1011.3 |
| 20260902160315 | 16 | 151 | 4.8 | 12.9 | 0.00 | 0.15 | 0.15 | 93 | 1011.3 |
| 20260902155816 | 16 | 151 | 3.2 | 9.7 | 0.00 | 0.15 | 0.15 | 93 | 1011.3 |
| 20260902154815 | 16 | 135 | 3.2 | 11.3 | 0.00 | 0.15 | 0.15 | 93 | 1011.4 |
| 20260902154316 | 16 | 133 | 4.8 | 8.0 | 0.00 | 0.15 | 0.15 | 93 | 1011.5 |
| 20260902153816 | 16 | 76 | 3.2 | 8.0 | 0.00 | 0.15 | 0.15 | 93 | 1011.6 |
| 20260902153315 | 16 | 111 | 3.2 | 9.7 | 0.00 | 0.15 | 0.15 | 93 | 1011.7 |
| 20260902152816 | 16 | 71 | 1.6 | 4.8 | 0.00 | 0.15 | 0.15 | 93 | 1011.7 |
| 20260902152315 | 16 | 76 | 3.2 | 4.8 | 0.00 | 0.15 | 0.15 | 93 | 1011.8 |
| 20260902151816 | 16 | 100 | 3.2 | 4.8 | 0.00 | 0.15 | 0.15 | 93 | 1011.8 |
| 20260902151315 | 16 | 110 | 3.2 | 11.3 | 0.00 | 0.15 | 0.15 | 93 | 1011.9 |
| 20260902150815 | 16 | 133 | 4.8 | 11.3 | 0.00 | 0.15 | 0.15 | 93 | 1011.9 |
| 20260902150316 | 16 | 144 | 3.2 | 8.0 | 0.03 | 0.15 | 0.15 | 93 | 1011.9 |
| 20260902145816 | 16 | 151 | 1.6 | 8.0 | 0.03 | 0.15 | 0.15 | 93 | 1012.0 |
| 20260902145316 | 16 | 180 | 4.8 | 9.7 | 0.05 | 0.15 | 0.15 | 93 | 1012.0 |
| 20260902144815 | 15 | 151 | 1.6 | 8.0 | 0.05 | 0.15 | 0.15 | 93 | 1012.2 |
| 20260902144315 | 15 | 158 | 4.8 | 9.7 | 0.05 | 0.15 | 0.15 | 93 | 1012.2 |
| 20260902143815 | 15 | 115 | 4.8 | 9.7 | 0.05 | 0.15 | 0.15 | 94 | 1012.2 |
| 20260902143315 | 15 | 103 | 3.2 | 8.0 | 0.05 | 0.15 | 0.15 | 94 | 1012.2 |
| 20260902142815 | 15 | 111 | 4.8 | 8.0 | 0.05 | 0.15 | 0.15 | 94 | 1012.3 |
| 20260902142315 | 15 | 77 | 4.8 | 11.3 | 0.05 | 0.15 | 0.15 | 93 | 1012.3 |
| 20260902141815 | 15 | 106 | 8.0 | 14.5 | 0.05 | 0.15 | 0.15 | 93 | 1012.4 |
| 20260902141315 | 15 | 108 | 4.8 | 11.3 | 0.05 | 0.15 | 0.15 | 93 | 1012.5 |
| 20260902140315 | 15 | 94 | 8.0 | 14.5 | 0.05 | 0.15 | 0.15 | 93 | 1012.6 |
| 20260902135816 | 15 | 77 | 6.4 | 12.9 | 0.05 | 0.15 | 0.15 | 93 | 1012.6 |
| 20260902134815 | 15 | 93 | 3.2 | 9.7 | 0.03 | 0.13 | 0.13 | 92 | 1012.7 |
| 20260902134315 | 15 | 105 | 3.2 | 8.0 | 0.05 | 0.13 | 0.13 | 92 | 1012.9 |
| 20260902133815 | 15 | 115 | 4.8 | 11.3 | 0.05 | 0.13 | 0.13 | 91 | 1012.9 |
| 20260902133315 | 15 | 117 | 8.0 | 14.5 | 0.03 | 0.10 | 0.10 | 90 | 1012.9 |
| 20260902132815 | 15 | 116 | 4.8 | 11.3 | 0.03 | 0.10 | 0.10 | 90 | 1013.0 |
| 20260902131815 | 15 | 123 | 4.8 | 12.9 | 0.03 | 0.10 | 0.10 | 90 | 1013.1 |
| 20260902131315 | 15 | 114 | 8.0 | 12.9 | 0.03 | 0.10 | 0.10 | 90 | 1013.1 |